Location: Unspecified
(0.0000°N, 0.0000°E)
Time: 00:33:25
(UTC+00:00)

A-11 Canister half - Visible Passes

Search period start: 29 July 2014 00:00
Search period end: 08 August 2014 00:00
Orbit: 1527 x 1683 km, 47.3° (Epoch: 26 July)

Date Brightness Start Highest point End Pass type
(mag) Time Alt. Az. Time Alt. Az. Time Alt. Az.
29 Jul 10.8 04:54:03 10° S 05:01:30 24° SE 05:09:00 10° E visible
29 Jul 10.1 19:50:25 10° WNW 19:58:32 34° SW 20:05:06 15° S visible
30 Jul 10.8 04:32:50 10° S 04:39:55 22° SE 04:47:04 10° E visible
30 Jul 10.1 19:28:42 10° WNW 19:37:01 36° SW 19:45:19 10° SSE visible
31 Jul 10.9 04:11:38 10° S 04:18:20 20° SE 04:25:06 10° E visible
31 Jul 10.0 19:07:00 10° WNW 19:15:30 39° SW 19:23:58 10° SSE visible
01 Aug 10.9 03:50:29 10° S 03:56:45 18° SE 04:03:05 10° E visible
01 Aug 10.0 18:45:19 10° WNW 18:54:00 42° SW 19:02:36 10° SSE visible
02 Aug 10.9 03:29:41 11° SSE 03:35:10 17° SE 03:41:00 10° E visible
02 Aug 9.3 05:30:28 10° SW 05:40:26 86° SE 05:50:35 10° NE visible
02 Aug 9.9 18:23:39 10° WNW 18:32:29 45° SW 18:41:14 10° SSE visible
03 Aug 10.9 03:09:54 13° SSE 03:13:34 15° SE 03:18:51 10° E visible
03 Aug 9.3 05:08:58 10° SW 05:18:54 81° SE 05:29:01 10° NE visible
04 Aug 10.9 02:50:09 13° SE 02:51:58 14° SE 02:56:36 10° ESE visible
04 Aug 9.3 04:48:30 14° SSW 04:57:21 76° SE 05:07:27 10° NE visible
05 Aug 11.0 02:30:25 13° SE 02:30:25 13° SE 02:34:12 10° ESE visible
05 Aug 9.3 04:28:47 22° SSW 04:35:49 71° SE 04:45:51 10° NE visible
06 Aug 11.2 02:10:42 11° ESE 02:10:42 11° ESE 02:11:32 10° ESE visible
06 Aug 9.3 04:09:03 32° SSW 04:14:17 67° SE 04:24:15 10° NE visible
07 Aug 9.3 03:49:20 43° S 03:52:45 63° SE 04:02:38 10° NE visible
